Location: Rotheul
(50.2849°N, 11.2349°E)
Time: 06:41:05
(UTC+01:00)

Envisat - Pass Details

Date: 30 October 2019
Orbit: 764 x 766 km, 98.1° (Epoch: 13 November)

Event Time Altitude Azimuth Distance (km) Brightness Sun altitude
Rises 18:59:01 0° 191° (S) 3,220 6.3 -20.2°
Reaches altitude 10° 19:01:31 10° 201° (SSW) 2,298 5.7 -20.6°
Maximum altitude 19:06:05 33° 265° (W) 1,270 4.8 -21.3°
Drops below altitude 10° 19:10:40 10° 329° (NNW) 2,313 5.9 -22.1°
Sets 19:13:13 0° 339° (NNW) 3,244 6.6 -22.5°
